This is the latest recevied weather packets stored in our database for station/object K3TLB-13. If no packets are shown the sender has not sent any weather packets the latest 10 day(s).
| Time | Temp. | Humidity | Pressure | Rain* | Wind** | Luminosity | Snow |
|---|---|---|---|---|---|---|---|
| 1777286071 | 1.11° C | 93% | 1023.7 hPa | 0 mm | - | - | - |
| 1777285769 | 1.11° C | 93% | 1023.7 hPa | 0 mm | - | - | - |
| 1777285474 | 1.11° C | 93% | 1023.7 hPa | 0 mm | - | - | - |
| 1777285172 | 1.11° C | 93% | 1023.5 hPa | 0 mm | - | - | - |
| 1777284870 | 0.56° C | 92% | 1023.5 hPa | 0 mm | - | - | - |
| 1777284570 | 0.56° C | 92% | 1023.4 hPa | 0 mm | - | - | - |
| 1777284269 | 0.56° C | 92% | 1023.5 hPa | 0 mm | - | - | - |
| 1777283971 | 0.56° C | 92% | 1023.6 hPa | 0 mm | - | - | - |
| 1777283672 | 0.56° C | 92% | 1023.5 hPa | 0 mm | - | - | - |
| 1777283371 | 0.56° C | 92% | 1023.5 hPa | 0 mm | - | - | - |
| 1777283069 | 1.11° C | 92% | 1023.5 hPa | 0 mm | - | - | - |
| 1777282770 | 1.11° C | 92% | 1023.6 hPa | 0 mm | - | - | - |
| 1777282471 | 1.67° C | 93% | 1023.6 hPa | 0 mm | - | - | - |
| 1777282169 | 1.67° C | 93% | 1023.6 hPa | 0 mm | - | - | - |
| 1777281870 | 2.22° C | 93% | 1023.5 hPa | 0 mm | - | - | - |
| 1777281569 | 1.67° C | 93% | 1023.5 hPa | 0 mm | - | - | - |
| 1777281270 | 1.11° C | 92% | 1023.4 hPa | 0 mm | - | - | - |
| 1777280971 | 1.11° C | 92% | 1023.5 hPa | 0 mm | - | - | - |
| 1777280671 | 1.11° C | 92% | 1023.4 hPa | 0 mm | - | - | - |
| 1777280369 | 1.11° C | 92% | 1023.3 hPa | 0 mm | - | - | - |
| 1777280069 | 1.67° C | 92% | 1023.3 hPa | 0 mm | - | - | - |
| 1777279769 | 1.67° C | 92% | 1023.2 hPa | 0 mm | - | - | - |
| 1777279469 | 1.11° C | 92% | 1023.2 hPa | 0 mm | - | - | - |
| 1777279169 | 1.11° C | 92% | 1023.2 hPa | 0 mm | - | - | - |
| 1777278869 | 1.11° C | 91% | 1023.3 hPa | 0 mm | - | - | - |
* Rain latest hour (hover to see other rain measurements)
** Current wind speed in m/s (hover to see current wind gust speed)